[[{"header":{"parameterUnit":"m.s-1","parameterCategory":1,"la1":30.2991,"la2":30.254,"lo1":-89.0895,"lo2":-89.0444,"dy":0.0017,"dx":0.0017,"nx":28,"ny":28,"refTime":"2024-02-21T09:00:00:Z","depth":0,"parameterNumber":2,"parameterNumberName":"U-component_of_WINDS"},"data":[0,0,0,0,0,0,0,0,0,0,0,0,0,0,0,0,0,0,0,0,0,0,0,0,0,0,0,0,0,0,0,0,0,0,0,0,0,0,0,0,0,0,0,0,0,0,0,0,0,0,0,0,0,0,0,0,0,0,-0.0573,-0.0572,0,-0.0513,-0.0512,-0.0511,-0.051,-0.0511,-0.0512,-0.0513,-0.0452,-0.045,-0.0448,0,0,0,0,0,0,0,0,0,0,0,0,0,-0.069,-0.0688,-0.0573,-0.0572,-0.0572,-0.0513,-0.0512,-0.0511,-0.051,-0.0511,-0.0512,-0.0513,-0.0453,-0.045,-0.0447,0,0,0,0,0,0,0,0,0,0,0,0,0,-0.0635,-0.0687,-0.0573,-0.0564,-0.0563,-0.0513,-0.0512,-0.0511,-0.051,-0.0511,-0.0512,-0.0513,-0.0454,-0.045,-0.0447,-0.0403,0,0,-0.0436,-0.0435,0,0,0,0,0,0,0,0,-0.0638,-0.0631,-0.0566,-0.0565,-0.0563,-0.052,-0.0531,-0.0475,-0.051,-0.053,-0.0513,-0.0514,-0.0474,-0.0469,-0.0455,-0.04,-0.0397,-0.0436,-0.0434,-0.0432,-0.0431,0,0,0,0,0,0,0,-0.0642,-0.0634,-0.0549,-0.0565,-0.0563,-0.0564,-0.0557,-0.052,-0.0496,-0.0528,-0.0528,-0.0521,-0.0473,-0.0458,-0.0454,-0.0396,-0.0436,-0.0433,-0.0431,-0.043,-0.0303,-0.0302,0,0,0,0,0,0,-0.0648,-0.0637,-0.0551,-0.0547,-0.0604,-0.0561,-0.0553,-0.0533,-0.0497,-0.0492,-0.052,-0.0521,-0.0464,-0.0458,-0.0452,-0.0398,-0.0432,-0.0429,-0.0427,-0.0305,-0.0303,-0.0302,0,0,0,0,0,0,-0.065,-0.064,-0.0554,-0.0592,-0.0581,-0.0557,-0.0534,-0.0531,-0.0516,-0.049,-0.0486,-0.0509,-0.0464,-0.0456,-0.0415,-0.0396,-0.0428,-0.0424,-0.0306,-0.0304,-0.0302,-0.029,0,0,0,0,0,0,-0.0653,-0.0641,-0.0623,-0.0592,-0.0579,-0.0517,-0.0533,-0.0529,-0.051,-0.0511,-0.0479,-0.0475,-0.0465,-0.042,-0.0412,-0.0391,-0.0422,-0.0308,-0.0305,-0.0303,-0.0292,-0.0288,-0.0284,0,0,0,0,0,-0.0658,-0.0622,-0.0622,-0.0612,-0.0556,-0.0516,-0.0509,-0.0497,-0.0508,-0.0491,-0.0475,-0.0476,-0.04,-0.0416,-0.0406,-0.0385,-0.0309,-0.0306,-0.0303,-0.0293,-0.0288,-0.0284,0,0,0,0,0,0,-0.0652,-0.0618,-0.0617,-0.057,-0.0546,-0.0516,-0.0493,-0.0492,-0.0465,-0.0467,-0.0454,-0.0447,-0.0406,-0.0392,-0.0411,-0.0341,-0.0356,-0.0351,-0.0351,-0.0346,-0.0343,-0.0347,-0.0419,0,0,0,0,0,-0.0645,-0.0615,-0.0587,-0.0548,-0.0536,-0.0517,-0.0499,-0.0492,-0.0467,-0.0457,-0.0437,-0.0413,-0.0384,-0.0365,-0.0336,-0.029,-0.0284,-0.0271,-0.0267,-0.0264,-0.0259,-0.0235,-0.0229,-0.0292,-0.0292,-0.0293,0,0,-0.0631,-0.0608,-0.059,-0.0546,-0.0527,-0.0496,-0.0508,-0.0475,-0.0453,-0.0452,-0.0411,-0.0397,-0.0369,-0.0325,-0.0305,-0.0312,-0.0241,-0.026,-0.0258,-0.0255,-0.0231,-0.0225,-0.022,-0.0291,-0.0291,-0.0291,0,0,-0.0589,-0.0569,-0.0534,-0.0515,-0.0485,-0.0473,-0.0465,-0.0435,-0.0425,-0.0385,-0.0384,-0.0357,-0.0307,-0.0287,-0.0271,-0.0223,-0.0224,-0.0215,-0.0194,-0.017,-0.0165,-0.0161,-0.0144,-0.0138,-0.0211,-0.0211,-0.021,0,-0.0575,-0.0528,-0.0517,-0.0484,-0.0465,-0.0464,-0.0429,-0.0411,-0.0374,-0.0361,-0.0369,-0.0306,-0.0288,-0.024,-0.0228,-0.0215,-0.0206,-0.0217,-0.0167,-0.0162,-0.0158,-0.0141,-0.0135,-0.021,-0.021,-0.021,-0.021,0,-0.0512,-0.048,-0.0456,-0.042,-0.0399,-0.0365,-0.035,-0.033,-0.0326,-0.0313,-0.0273,-0.0251,-0.0218,-0.0206,-0.0202,-0.0158,-0.0163,-0.0169,-0.0184,-0.0151,-0.0135,-0.0129,-0.0208,-0.0209,-0.0209,-0.0209,0,0,-0.0463,-0.0423,-0.0414,-0.0398,-0.0366,-0.0341,-0.0308,-0.0276,-0.0259,-0.0234,-0.0207,-0.0165,-0.0171,-0.0152,-0.0146,-0.0125,-0.0089,-0.0134,-0.0133,-0.0126,-0.004,-0.0035,-0.0028,-0.009,-0.0089,-0.0088,-0.0042,0,-0.0418,-0.0358,-0.0348,-0.0296,-0.0267,-0.0266,-0.0238,-0.0215,-0.0203,-0.0177,-0.0164,-0.0135,-0.0144,-0.0133,-0.0113,-0.0098,-0.0072,-0.0101,-0.0064,-0.0063,-0.007,-0.002,-0.0014,0.0029,-0.0036,-0.0035,-0.0034,0,-0.0356,-0.0329,-0.0274,-0.0247,-0.0234,-0.0209,-0.0179,-0.0154,-0.0129,-0.0122,-0.0102,-0.0099,-0.0066,-0.0083,-0.0038,-0.0058,-0.0043,-0.0034,-0.0032,-0.0027,-0.0046,-0.0013,0.0042,0.0049,-0.0025,-0.0025,-0.0026,0,-0.0325,-0.0276,-0.0236,-0.0223,-0.019,-0.0172,-0.0158,-0.0135,-0.0116,-0.0091,-0.0079,-0.005,-0.0034,-0.0013,-0.0002,-0.0016,0.0042,0.0026,0.0049,0.0049,0.0062,0.0062,0.0122,0.0071,0.007,0.007,0.007,0,-0.0275,-0.0241,-0.0222,-0.0198,-0.0161,-0.0151,-0.0115,-0.0101,-0.008,-0.0054,-0.0052,-0.0028,-0.0016,0.001,0.0018,0.0054,0.0061,0.0067,0.0069,0.0068,0.0067,0.0079,0.0076,0.0072,0.0072,0.0071,0.0071,0,-0.0233,-0.0219,-0.0177,-0.015,-0.0142,-0.0116,-0.0093,-0.007,-0.0059,-0.0026,-0.0018,-0.0,0.003,0.0042,0.0079,0.0084,0.0126,0.0125,0.0118,0.0119,0.0141,0.0139,0.0212,0.0222,0.0163,0.0164,0.0164,0,-0.0201,-0.0176,-0.0146,-0.0128,-0.0113,-0.0084,-0.0066,-0.0055,-0.0036,-0.0007,0.0012,0.0042,0.0067,0.0115,0.0131,0.0159,0.0159,0.0182,0.0163,0.0161,0.016,0.0159,0.0161,0.0186,0.0187,0.0187,0.0188,0,-0.0146,-0.0141,-0.0114,-0.0084,-0.0062,-0.0038,-0.0015,-0.0001,0.0012,0.0033,0.0065,0.0084,0.0121,0.0151,0.018,0.0193,0.0193,0.0193,0.02,0.02,0.0195,0.0198,0.0129,0.0192,0.0192,0.0191,0.0191,0.0191,-0.0108,-0.0085,-0.0061,-0.0031,-0.0013,0.0008,0.0031,0.0045,0.0071,0.0103,0.0107,0.014,0.0163,0.0201,0.0215,0.0241,0.0235,0.0245,0.0247,0.025,0.0252,0.019,0.0246,0.0246,0.0246,0.0246,0.0246,0,-0.0052,-0.0037,-0.001,0.0023,0.0046,0.0043,0.0068,0.0087,0.0117,0.0138,0.0162,0.0197,0.0226,0.0243,0.0271,0.0288,0.0289,0.0295,0.0295,0.0298,0.0255,0.0247,0.0295,0.0295,0.0295,0.0295,0.0295,0.0295,-0.0021,0.0018,0.0026,0.0073,0.0088,0.0121,0.0135,0.0154,0.0171,0.0211,0.0234,0.0245,0.0265,0.0294,0.032,0.0324,0.0335,0.0342,0.0346,0.0306,0.0301,0.0296,0.0288,0.0344,0.0344,0.0386,0.0387,0.0387]},{"header":{"parameterUnit":"m.s-1","parameterCategory":1,"la1":30.2991,"la2":30.254,"lo1":-89.0895,"lo2":-89.0444,"dy":0.0017,"dx":0.0017,"nx":28,"ny":28,"refTime":"2024-02-21T09:00:00:Z","depth":0,"parameterNumber":3,"parameterNumberName":"V-component_of_WINDS"},"data":[0,0,0,0,0,0,0,0,0,0,0,0,0,0,0,0,0,0,0,0,0,0,0,0,0,0,0,0,0,0,0,0,0,0,0,0,0,0,0,0,0,0,0,0,0,0,0,0,0,0,0,0,0,0,0,0,0,0,3.0497,3.05,0,3.0739,3.0742,3.0744,3.0801,3.0799,3.0797,3.0796,3.1039,3.1047,3.1055,0,0,0,0,0,0,0,0,0,0,0,0,0,3.008,3.0088,3.0497,3.05,3.0503,3.0738,3.0742,3.0745,3.0801,3.0799,3.0797,3.0795,3.1037,3.1046,3.1056,0,0,0,0,0,0,0,0,0,0,0,0,0,3.0285,3.009,3.0497,3.056,3.0568,3.0738,3.0742,3.0746,3.0801,3.0799,3.0796,3.0794,3.1034,3.1045,3.1057,3.1181,0,0,3.1094,3.1099,0,0,0,0,0,0,0,0,3.0274,3.0301,3.0547,3.0556,3.0565,3.0737,3.0684,3.0892,3.0802,3.0712,3.0796,3.0793,3.0941,3.096,3.1011,3.1192,3.1203,3.1095,3.1102,3.1108,3.1111,0,0,0,0,0,0,0,3.0259,3.029,3.0593,3.0551,3.0562,3.0574,3.0601,3.0724,3.0837,3.072,3.0725,3.0753,3.0945,3.0999,3.1017,3.1206,3.1095,3.1105,3.1113,3.1118,3.1501,3.1504,0,0,0,0,0,0,3.0235,3.0278,3.0585,3.06,3.041,3.0584,3.0613,3.0684,3.0836,3.0857,3.0755,3.0754,3.098,3.1003,3.1026,3.1181,3.1107,3.1119,3.1126,3.1498,3.1502,3.1505,0,0,0,0,0,0,3.0225,3.0262,3.0575,3.0441,3.0481,3.0594,3.0673,3.069,3.0745,3.0862,3.0882,3.0789,3.0979,3.1009,3.1142,3.119,3.1124,3.1135,3.1495,3.1499,3.1503,3.1492,0,0,0,0,0,0,3.0213,3.0258,3.0307,3.0441,3.0488,3.0689,3.0676,3.0697,3.0766,3.0768,3.09,3.092,3.0979,3.1124,3.1154,3.1206,3.1144,3.1491,3.1497,3.1502,3.1489,3.1496,3.1502,0,0,0,0,0,3.0198,3.0294,3.0309,3.0346,3.0553,3.0692,3.0719,3.0786,3.0769,3.0819,3.0895,3.0916,3.118,3.1137,3.1172,3.1228,3.1488,3.1495,3.1502,3.1486,3.1495,3.1502,0,0,0,0,0,0,3.0161,3.0312,3.0332,3.0473,3.0569,3.0701,3.0766,3.0793,3.0894,3.0892,3.097,3.0999,3.1128,3.1191,3.1141,3.1355,3.1333,3.1347,3.131,3.1319,3.1325,3.1308,3.1154,0,0,0,0,0,3.0169,3.0271,3.0397,3.051,3.0557,3.0653,3.0716,3.076,3.0862,3.0902,3.0988,3.1085,3.119,3.1257,3.136,3.1497,3.1527,3.1553,3.1559,3.1564,3.1576,3.1653,3.1666,3.1527,3.1527,3.1527,0,0,3.0188,3.0283,3.0342,3.0505,3.0585,3.0687,3.0687,3.0795,3.0872,3.0919,3.1051,3.1116,3.1229,3.1365,3.1429,3.1422,3.162,3.1572,3.1575,3.1585,3.1661,3.1674,3.1686,3.1532,3.1531,3.153,0,0,3.0274,3.0356,3.046,3.0539,3.066,3.0723,3.0747,3.0876,3.0921,3.1055,3.1092,3.1183,3.1362,3.1442,3.1506,3.1621,3.1644,3.1652,3.1686,3.176,3.1771,3.1782,3.1823,3.1837,3.1662,3.1662,3.1662,0,3.0281,3.0439,3.0509,3.0617,3.0687,3.0734,3.0839,3.0912,3.106,3.1107,3.1096,3.1322,3.1401,3.1557,3.1585,3.1635,3.1665,3.1638,3.1764,3.1775,3.1786,3.1827,3.1842,3.1663,3.1663,3.1663,3.1663,0,3.0442,3.055,3.0619,3.0762,3.084,3.0945,3.103,3.11,3.1136,3.1199,3.1334,3.1431,3.1555,3.1595,3.163,3.1755,3.1747,3.1749,3.1729,3.1798,3.1838,3.1854,3.1663,3.1663,3.1663,3.1663,0,0,3.0513,3.0694,3.0718,3.0783,3.092,3.1004,3.111,3.1233,3.1292,3.1391,3.1482,3.1632,3.1635,3.1707,3.1752,3.1817,3.1903,3.1812,3.1816,3.1827,3.2047,3.2046,3.2063,3.1918,3.1921,3.1924,3.2038,0,3.0617,3.0812,3.0878,3.1038,3.1139,3.1185,3.1278,3.137,3.1432,3.1526,3.1593,3.1699,3.1694,3.1738,3.1804,3.1878,3.1949,3.1871,3.2004,3.2008,3.1976,3.2083,3.2083,3.2185,3.2054,3.2056,3.2058,0,3.0765,3.0869,3.104,3.1164,3.1208,3.1291,3.1408,3.1497,3.1602,3.1643,3.1723,3.1763,3.1875,3.1846,3.2002,3.1947,3.2005,3.2049,3.2055,3.2071,3.2038,3.2104,3.222,3.2236,3.2083,3.2081,3.2079,0,3.0802,3.0983,3.111,3.1164,3.1311,3.1368,3.1432,3.1535,3.1604,3.1705,3.1751,3.1863,3.1925,3.201,3.2079,3.2052,3.2228,3.2205,3.2264,3.2263,3.2301,3.2298,3.2429,3.2335,3.2335,3.2335,3.2334,0,3.0912,3.1015,3.1128,3.1206,3.1322,3.1396,3.1508,3.1574,3.1665,3.1756,3.1801,3.1884,3.1969,3.2063,3.2117,3.2237,3.2264,3.23,3.2313,3.2297,3.2293,3.2337,3.2333,3.2339,3.2338,3.2337,3.2336,0,3.0974,3.1053,3.1194,3.1322,3.1356,3.1436,3.1545,3.1622,3.1684,3.1798,3.1829,3.1927,3.2041,3.2117,3.2261,3.2297,3.2428,3.244,3.2394,3.2401,3.2456,3.245,3.2622,3.2648,3.2534,3.2535,3.2536,0,3.104,3.1121,3.1257,3.1322,3.1386,3.1489,3.156,3.1634,3.1706,3.1832,3.1893,3.201,3.2107,3.2285,3.2369,3.2479,3.2494,3.2547,3.2511,3.2492,3.2497,3.2492,3.2501,3.2553,3.2554,3.2554,3.2555,0,3.1149,3.1185,3.1287,3.1402,3.1486,3.158,3.1674,3.1724,3.1814,3.1892,3.2009,3.2085,3.2233,3.2347,3.2466,3.2529,3.2558,3.2565,3.2585,3.257,3.2541,3.2559,3.2411,3.2561,3.2561,3.256,3.256,3.256,3.1217,3.1291,3.1399,3.1511,3.1589,3.1676,3.1755,3.1827,3.1927,3.2054,3.2091,3.2213,3.2315,3.2477,3.2543,3.2638,3.2633,3.2661,3.2669,3.2675,3.2676,3.2524,3.2659,3.2659,3.2659,3.2659,3.2659,0,3.133,3.1402,3.1503,3.1635,3.1722,3.1741,3.1846,3.1918,3.2025,3.2119,3.2214,3.2348,3.2459,3.2551,3.2665,3.2724,3.274,3.2752,3.2749,3.2764,3.2673,3.2646,3.2737,3.2737,3.2737,3.2737,3.2737,3.2737,3.1399,3.1526,3.1574,3.174,3.181,3.1931,3.199,3.207,3.2145,3.2293,3.2387,3.2446,3.2539,3.266,3.2763,3.2787,3.2828,3.2837,3.2864,3.2778,3.277,3.2761,3.2736,3.2845,3.2845,3.2947,3.2948,3.2948]}]]